Location: Newark
(25.0000°N, 73.5000°E)
Time: 00:37:51
(UTC+00:00)

S-56A Canister/Altair - Visible Passes

Search period start: 31 July 2021 00:00
Search period end: 10 August 2021 00:00
Orbit: 631 x 2501 km, 38.9° (Epoch: 30 July)

Date Brightness Start Highest point End Pass type
(mag) Time Alt. Az. Time Alt. Az. Time Alt. Az.
31 Jul 10.4 13:56:08 10° WNW 14:10:47 51° NNE 14:22:40 10° E visible
31 Jul 9.2 16:04:08 10° WNW 16:18:26 89° NE 16:21:45 54° ESE visible
31 Jul 10.6 18:13:13 10° WNW 18:19:09 24° W 18:19:09 24° W visible
01 Aug 9.6 15:30:18 10° WNW 15:45:03 83° NNE 15:50:38 38° ESE visible
01 Aug 10.2 17:38:57 10° WNW 17:48:03 34° WSW 17:48:03 34° WSW visible
02 Aug 9.8 14:56:31 10° WNW 15:11:35 77° NNE 15:19:34 25° ESE visible
02 Aug 9.8 17:04:50 10° WNW 17:16:59 43° SW 17:16:59 43° SW visible
03 Aug 10.0 14:22:46 10° WNW 14:38:00 71° NNE 14:48:33 15° ESE visible
03 Aug 9.7 16:30:47 10° WNW 16:44:00 50° SW 16:45:58 47° SSW visible
04 Aug 10.1 13:49:05 10° WNW 14:04:19 67° NNE 14:16:50 10° ESE visible
04 Aug 9.7 15:56:49 10° WNW 16:10:51 58° SW 16:15:01 42° S visible
04 Aug 11.1 18:09:45 10° W 18:12:25 12° WSW 18:12:25 12° WSW visible
05 Aug 9.8 15:22:56 10° WNW 15:37:35 66° SW 15:44:06 32° SSE visible
05 Aug 10.9 17:34:09 10° W 17:41:31 18° SW 17:41:31 18° SW visible
06 Aug 9.9 14:49:07 10° WNW 15:04:13 73° SW 15:13:14 22° SE visible
06 Aug 10.7 16:59:14 10° W 17:08:44 23° SW 17:10:40 22° SW visible
07 Aug 10.0 14:15:25 10° WNW 14:30:44 81° SW 14:42:27 13° SE visible
07 Aug 10.5 16:24:41 10° WNW 16:35:45 28° SW 16:39:53 23° SSW visible
08 Aug 10.5 15:50:21 10° WNW 16:02:39 34° SW 16:09:09 21° S visible
09 Aug 10.6 15:16:13 10° WNW 15:29:28 39° SW 15:38:28 16° S visible
